Wetterdaten: Mittwoch, 09.09.2015
Datum Zeit Auen-Temp. Temp gefhlt Luftfeuchte Luftdruck Regen Wind Richtung Richtung Taupunkt Windben
09.09.2015 00:00 7,2 C 6,9 C 79 % 1021,3 hPa 0,0 mm 0,0 km/h (0 Bft) SO 135 3,8 C 0,0 km/h (0 Bft)
09.09.2015 00:05 7,0 C 6,7 C 79 % 1021,3 hPa 0,0 mm 0,0 km/h (0 Bft) SO 135 3,6 C 0,0 km/h (0 Bft)
09.09.2015 00:10 7,1 C 6,7 C 80 % 1021,3 hPa 0,0 mm 0,0 km/h (0 Bft) SO 135 3,9 C 0,0 km/h (0 Bft)
09.09.2015 00:15 6,8 C 6,5 C 80 % 1021,2 hPa 0,0 mm 0,0 km/h (0 Bft) SO 135 3,6 C 0,0 km/h (0 Bft)
09.09.2015 00:20 6,8 C 6,4 C 80 % 1021,2 hPa 0,0 mm 0,0 km/h (0 Bft) S 180 3,6 C 0,0 km/h (0 Bft)
09.09.2015 00:25 6,8 C 6,4 C 81 % 1021,2 hPa 0,0 mm 0,0 km/h (0 Bft) S-SO 157 3,8 C 0,0 km/h (0 Bft)
09.09.2015 00:30 6,8 C 6,3 C 82 % 1021,2 hPa 0,0 mm 0,0 km/h (0 Bft) S 180 3,9 C 0,0 km/h (0 Bft)
09.09.2015 00:35 6,8 C 6,8 C 80 % 1021,2 hPa 0,0 mm 0,0 km/h (0 Bft) S-SO 157 3,6 C 0,0 km/h (0 Bft)
09.09.2015 00:40 6,6 C 6,6 C 80 % 1021,2 hPa 0,0 mm 0,0 km/h (0 Bft) S-SO 157 3,4 C 0,0 km/h (0 Bft)
09.09.2015 00:45 6,3 C 6,3 C 80 % 1021,2 hPa 0,0 mm 0,0 km/h (0 Bft) S-SO 157 3,1 C 0,0 km/h (0 Bft)
09.09.2015 00:50 6,0 C 5,8 C 82 % 1021,2 hPa 0,0 mm 0,0 km/h (0 Bft) SO 135 3,2 C 0,0 km/h (0 Bft)
09.09.2015 00:55 5,9 C 5,7 C 83 % 1021,2 hPa 0,0 mm 0,0 km/h (0 Bft) O 90 3,2 C 0,0 km/h (0 Bft)
09.09.2015 01:00 5,9 C 5,6 C 83 % 1021,2 hPa 0,0 mm 0,0 km/h (0 Bft) S-SO 157 3,2 C 0,0 km/h (0 Bft)
09.09.2015 01:05 5,9 C 5,6 C 84 % 1021,2 hPa 0,0 mm 0,0 km/h (0 Bft) SW 225 3,4 C 0,0 km/h (0 Bft)
09.09.2015 01:10 6,1 C 5,8 C 84 % 1021,2 hPa 0,0 mm 0,0 km/h (0 Bft) S-SO 157 3,6 C 0,0 km/h (0 Bft)
09.09.2015 01:15 6,1 C 5,9 C 85 % 1021,2 hPa 0,0 mm 0,3 km/h (0 Bft) S-SO 157 3,8 C 0,0 km/h (0 Bft)
09.09.2015 01:20 6,3 C 6,3 C 82 % 1021,2 hPa 0,0 mm 1,6 km/h (1 Bft) S 180 3,5 C 5,7 km/h (1 Bft)
09.09.2015 01:25 6,6 C 6,4 C 83 % 1021,2 hPa 0,0 mm 3,4 km/h (1 Bft) S-SO 157 3,9 C 4,4 km/h (1 Bft)
09.09.2015 01:30 6,2 C 6,3 C 83 % 1021,2 hPa 0,0 mm 2,6 km/h (1 Bft) S-SW 202 3,5 C 0,0 km/h (0 Bft)
09.09.2015 01:35 6,0 C 5,9 C 85 % 1021,1 hPa 0,0 mm 1,0 km/h (0 Bft) SO 135 3,7 C 0,0 km/h (0 Bft)
09.09.2015 01:40 5,9 C 5,8 C 84 % 1021,1 hPa 0,0 mm 0,3 km/h (0 Bft) S 180 3,4 C 0,0 km/h (0 Bft)
09.09.2015 01:45 6,1 C 6,0 C 83 % 1021,1 hPa 0,0 mm 0,0 km/h (0 Bft) S 180 3,4 C 0,0 km/h (0 Bft)
09.09.2015 01:50 6,3 C 6,2 C 84 % 1021,1 hPa 0,0 mm 0,0 km/h (0 Bft) S 180 3,8 C 0,0 km/h (0 Bft)
09.09.2015 01:55 6,0 C 6,0 C 84 % 1020,9 hPa 0,0 mm 0,0 km/h (0 Bft) SO 135 3,5 C 0,0 km/h (0 Bft)
09.09.2015 02:00 5,6 C 5,5 C 86 % 1020,9 hPa 0,0 mm 0,0 km/h (0 Bft) SO 135 3,4 C 0,0 km/h (0 Bft)
09.09.2015 02:05 5,4 C 5,3 C 86 % 1020,9 hPa 0,0 mm 0,0 km/h (0 Bft) SO 135 3,3 C 0,0 km/h (0 Bft)
09.09.2015 02:10 5,5 C 5,2 C 86 % 1020,9 hPa 0,0 mm 0,0 km/h (0 Bft) S-SO 157 3,3 C 0,0 km/h (0 Bft)
09.09.2015 02:15 5,6 C 5,3 C 86 % 1020,9 hPa 0,0 mm 0,0 km/h (0 Bft) SO 135 3,4 C 0,0 km/h (0 Bft)
09.09.2015 02:20 5,3 C 5,1 C 86 % 1020,9 hPa 0,0 mm 0,0 km/h (0 Bft) SO 135 3,2 C 0,0 km/h (0 Bft)
09.09.2015 02:25 5,6 C 5,3 C 87 % 1020,9 hPa 0,0 mm 0,0 km/h (0 Bft) S 180 3,6 C 0,0 km/h (0 Bft)
09.09.2015 02:30 5,2 C 5,0 C 87 % 1020,9 hPa 0,0 mm 0,0 km/h (0 Bft) S-SW 202 3,2 C 0,0 km/h (0 Bft)
09.09.2015 02:35 5,0 C 4,8 C 86 % 1020,6 hPa 0,0 mm 0,0 km/h (0 Bft) S-SW 202 2,9 C 0,0 km/h (0 Bft)
09.09.2015 02:40 5,0 C 4,7 C 86 % 1020,6 hPa 0,0 mm 0,0 km/h (0 Bft) S-SW 202 2,9 C 0,0 km/h (0 Bft)
09.09.2015 02:45 4,9 C 4,6 C 87 % 1020,6 hPa 0,0 mm 0,0 km/h (0 Bft) S-SW 202 2,9 C 0,0 km/h (0 Bft)
09.09.2015 02:50 4,7 C 4,5 C 87 % 1020,6 hPa 0,0 mm 0,0 km/h (0 Bft) O-SO 112 2,7 C 0,0 km/h (0 Bft)
09.09.2015 02:55 4,9 C 4,6 C 87 % 1020,5 hPa 0,0 mm 0,0 km/h (0 Bft) S 180 2,9 C 0,0 km/h (0 Bft)
09.09.2015 03:00 4,8 C 4,6 C 87 % 1020,5 hPa 0,0 mm 0,0 km/h (0 Bft) S 180 2,8 C 0,0 km/h (0 Bft)
09.09.2015 03:05 4,8 C 4,5 C 87 % 1020,5 hPa 0,0 mm 0,0 km/h (0 Bft) S 180 2,8 C 0,0 km/h (0 Bft)
09.09.2015 03:10 4,9 C 4,7 C 87 % 1020,5 hPa 0,0 mm 0,0 km/h (0 Bft) S-SW 202 2,9 C 0,0 km/h (0 Bft)
09.09.2015 03:15 4,7 C 4,5 C 87 % 1020,4 hPa 0,0 mm 0,0 km/h (0 Bft) S-SW 202 2,7 C 0,0 km/h (0 Bft)
09.09.2015 03:20 4,7 C 4,5 C 87 % 1020,4 hPa 0,0 mm 0,0 km/h (0 Bft) S-SW 202 2,7 C 0,0 km/h (0 Bft)
09.09.2015 03:25 4,7 C 4,5 C 88 % 1020,4 hPa 0,0 mm 0,0 km/h (0 Bft) S-SW 202 2,9 C 0,0 km/h (0 Bft)
09.09.2015 03:30 4,9 C 4,7 C 88 % 1020,4 hPa 0,0 mm 0,0 km/h (0 Bft) S-SO 157 3,1 C 0,0 km/h (0 Bft)
09.09.2015 03:35 5,1 C 4,9 C 88 % 1020,2 hPa 0,0 mm 0,0 km/h (0 Bft) S-SO 157 3,3 C 0,0 km/h (0 Bft)
09.09.2015 03:40 5,2 C 5,1 C 85 % 1020,2 hPa 0,0 mm 0,0 km/h (0 Bft) S-SW 202 2,9 C 0,0 km/h (0 Bft)
09.09.2015 03:45 5,3 C 5,3 C 85 % 1020,2 hPa 0,0 mm 0,0 km/h (0 Bft) S-SW 202 3,0 C 0,0 km/h (0 Bft)
09.09.2015 03:49 5,4 C 5,3 C 88 % 1020,2 hPa 0,0 mm 0,0 km/h (0 Bft) S-SW 202 3,6 C 0,0 km/h (0 Bft)
09.09.2015 03:50 5,4 C 5,3 C 88 % 1020,2 hPa 0,0 mm 0,0 km/h (0 Bft) S-SW 202 3,6 C 0,0 km/h (0 Bft)
09.09.2015 03:55 5,4 C 5,3 C 88 % 1020,1 hPa 0,0 mm 0,0 km/h (0 Bft) S-SW 202 3,6 C 0,0 km/h (0 Bft)
09.09.2015 04:00 5,4 C 5,4 C 85 % 1020,1 hPa 0,0 mm 0,0 km/h (0 Bft) S-SO 157 3,1 C 0,0 km/h (0 Bft)
09.09.2015 04:05 5,4 C 5,4 C 85 % 1020,1 hPa 0,0 mm 0,0 km/h (0 Bft) S 180 3,1 C 0,0 km/h (0 Bft)
09.09.2015 04:10 5,4 C 5,3 C 88 % 1020,1 hPa 0,0 mm 0,0 km/h (0 Bft) S-SO 157 3,6 C 0,0 km/h (0 Bft)
09.09.2015 04:15 5,3 C 5,2 C 88 % 1019,9 hPa 0,0 mm 0,0 km/h (0 Bft) S-SO 157 3,5 C 0,0 km/h (0 Bft)
09.09.2015 04:20 5,3 C 5,1 C 88 % 1019,9 hPa 0,0 mm 0,0 km/h (0 Bft) S-SO 157 3,5 C 0,0 km/h (0 Bft)
09.09.2015 04:25 5,2 C 5,0 C 88 % 1019,9 hPa 0,0 mm 0,0 km/h (0 Bft) S-SO 157 3,4 C 0,0 km/h (0 Bft)
09.09.2015 04:30 5,2 C 5,1 C 88 % 1019,9 hPa 0,0 mm 0,0 km/h (0 Bft) S-SO 157 3,4 C 0,0 km/h (0 Bft)
09.09.2015 04:35 5,2 C 5,1 C 88 % 1019,8 hPa 0,0 mm 0,0 km/h (0 Bft) S-SW 202 3,4 C 0,0 km/h (0 Bft)
09.09.2015 04:40 5,0 C 5,0 C 88 % 1019,8 hPa 0,0 mm 0,0 km/h (0 Bft) S-SW 202 3,2 C 0,0 km/h (0 Bft)
09.09.2015 04:45 5,0 C 4,9 C 88 % 1019,8 hPa 0,0 mm 0,0 km/h (0 Bft) S-SW 202 3,2 C 0,0 km/h (0 Bft)
09.09.2015 04:50 4,9 C 4,7 C 89 % 1019,8 hPa 0,0 mm 0,0 km/h (0 Bft) S-SW 202 3,2 C 0,0 km/h (0 Bft)
09.09.2015 04:55 4,7 C 4,5 C 89 % 1019,8 hPa 0,0 mm 0,0 km/h (0 Bft) S-SW 202 3,0 C 0,0 km/h (0 Bft)
09.09.2015 05:00 5,0 C 4,7 C 88 % 1019,8 hPa 0,0 mm 0,0 km/h (0 Bft) S-SW 202 3,2 C 0,0 km/h (0 Bft)
09.09.2015 05:05 5,2 C 4,9 C 89 % 1019,8 hPa 0,0 mm 0,0 km/h (0 Bft) S-SO 157 3,5 C 0,0 km/h (0 Bft)
09.09.2015 05:10 5,2 C 4,9 C 89 % 1019,8 hPa 0,0 mm 0,0 km/h (0 Bft) S 180 3,5 C 0,0 km/h (0 Bft)
09.09.2015 05:15 5,0 C 4,8 C 89 % 1019,8 hPa 0,0 mm 0,0 km/h (0 Bft) S 180 3,3 C 0,0 km/h (0 Bft)
09.09.2015 05:20 5,0 C 4,8 C 89 % 1019,8 hPa 0,0 mm 0,0 km/h (0 Bft) SO 135 3,3 C 0,0 km/h (0 Bft)
09.09.2015 05:25 4,9 C 4,7 C 89 % 1019,8 hPa 0,0 mm 0,0 km/h (0 Bft) SO 135 3,2 C 0,0 km/h (0 Bft)
09.09.2015 05:30 4,9 C 4,7 C 89 % 1019,8 hPa 0,0 mm 0,0 km/h (0 Bft) SO 135 3,2 C 0,0 km/h (0 Bft)
09.09.2015 05:35 4,9 C 4,7 C 89 % 1019,5 hPa 0,0 mm 0,0 km/h (0 Bft) SO 135 3,2 C 0,0 km/h (0 Bft)
09.09.2015 05:40 5,0 C 4,8 C 89 % 1019,5 hPa 0,0 mm 0,0 km/h (0 Bft) SO 135 3,3 C 0,0 km/h (0 Bft)
09.09.2015 05:45 5,1 C 4,9 C 89 % 1019,5 hPa 0,0 mm 0,0 km/h (0 Bft) S-SO 157 3,4 C 0,0 km/h (0 Bft)
09.09.2015 05:50 5,1 C 4,9 C 89 % 1019,5 hPa 0,0 mm 0,0 km/h (0 Bft) SO 135 3,4 C 0,0 km/h (0 Bft)
09.09.2015 05:55 5,1 C 4,9 C 89 % 1019,5 hPa 0,0 mm 0,0 km/h (0 Bft) SO 135 3,4 C 0,0 km/h (0 Bft)
09.09.2015 06:00 5,0 C 4,8 C 89 % 1019,5 hPa 0,0 mm 0,0 km/h (0 Bft) S-SO 157 3,3 C 0,0 km/h (0 Bft)
09.09.2015 06:05 4,9 C 4,7 C 89 % 1019,5 hPa 0,0 mm 0,0 km/h (0 Bft) S-SO 157 3,2 C 0,0 km/h (0 Bft)
09.09.2015 06:10 4,8 C 4,6 C 89 % 1019,5 hPa 0,0 mm 0,0 km/h (0 Bft) SW 225 3,1 C 0,0 km/h (0 Bft)
09.09.2015 06:15 4,8 C 4,6 C 89 % 1019,6 hPa 0,0 mm 0,0 km/h (0 Bft) SW 225 3,1 C 0,0 km/h (0 Bft)
09.09.2015 06:20 4,7 C 4,4 C 89 % 1019,6 hPa 0,0 mm 0,0 km/h (0 Bft) SW 225 3,0 C 0,0 km/h (0 Bft)
09.09.2015 06:25 4,6 C 4,3 C 89 % 1019,6 hPa 0,0 mm 0,0 km/h (0 Bft) SW 225 2,9 C 0,0 km/h (0 Bft)
09.09.2015 06:30 4,8 C 4,7 C 87 % 1019,6 hPa 0,0 mm 0,0 km/h (0 Bft) S 180 2,8 C 0,0 km/h (0 Bft)
09.09.2015 06:35 4,8 C 4,6 C 90 % 1019,4 hPa 0,0 mm 0,0 km/h (0 Bft) S 180 3,3 C 0,0 km/h (0 Bft)
09.09.2015 06:40 4,8 C 4,7 C 87 % 1019,4 hPa 0,0 mm 0,0 km/h (0 Bft) S-SW 202 2,8 C 0,0 km/h (0 Bft)
09.09.2015 06:45 4,5 C 4,3 C 90 % 1019,4 hPa 0,0 mm 0,0 km/h (0 Bft) S-SW 202 3,0 C 0,0 km/h (0 Bft)
09.09.2015 06:50 4,3 C 4,1 C 89 % 1019,4 hPa 0,0 mm 0,0 km/h (0 Bft) S-SW 202 2,7 C 0,0 km/h (0 Bft)
09.09.2015 06:55 4,2 C 4,0 C 89 % 1019,6 hPa 0,0 mm 0,0 km/h (0 Bft) S-SW 202 2,6 C 0,0 km/h (0 Bft)
09.09.2015 07:00 4,2 C 4,0 C 89 % 1019,6 hPa 0,0 mm 0,0 km/h (0 Bft) S-SO 157 2,6 C 0,0 km/h (0 Bft)
09.09.2015 07:05 4,2 C 4,0 C 89 % 1019,6 hPa 0,0 mm 0,0 km/h (0 Bft) S-SO 157 2,6 C 0,0 km/h (0 Bft)
09.09.2015 07:10 4,4 C 4,2 C 90 % 1019,6 hPa 0,0 mm 0,0 km/h (0 Bft) S-SO 157 2,9 C 0,0 km/h (0 Bft)
09.09.2015 07:15 4,5 C 4,4 C 90 % 1019,6 hPa 0,0 mm 0,0 km/h (0 Bft) S-SO 157 3,0 C 0,0 km/h (0 Bft)
09.09.2015 07:20 4,7 C 4,6 C 87 % 1019,6 hPa 0,0 mm 0,0 km/h (0 Bft) S-SO 157 2,7 C 0,0 km/h (0 Bft)
09.09.2015 07:25 4,8 C 4,8 C 87 % 1019,6 hPa 0,0 mm 0,0 km/h (0 Bft) S-SW 202 2,8 C 0,0 km/h (0 Bft)
09.09.2015 07:30 5,0 C 5,2 C 87 % 1019,6 hPa 0,0 mm 0,0 km/h (0 Bft) S-SW 202 3,0 C 0,0 km/h (0 Bft)
09.09.2015 07:35 5,1 C 5,3 C 87 % 1019,8 hPa 0,0 mm 0,0 km/h (0 Bft) S-SW 202 3,1 C 0,0 km/h (0 Bft)
09.09.2015 07:40 5,3 C 5,6 C 87 % 1019,8 hPa 0,0 mm 0,0 km/h (0 Bft) S-SW 202 3,3 C 0,0 km/h (0 Bft)
09.09.2015 07:45 5,4 C 5,8 C 87 % 1019,8 hPa 0,0 mm 0,0 km/h (0 Bft) S-SW 202 3,4 C 0,0 km/h (0 Bft)
09.09.2015 07:50 5,6 C 6,0 C 87 % 1019,8 hPa 0,0 mm 0,0 km/h (0 Bft) S-SW 202 3,6 C 0,0 km/h (0 Bft)
09.09.2015 07:55 5,8 C 6,2 C 87 % 1019,8 hPa 0,0 mm 0,0 km/h (0 Bft) S-SW 202 3,8 C 0,0 km/h (0 Bft)
09.09.2015 08:00 6,0 C 6,6 C 87 % 1019,8 hPa 0,0 mm 0,0 km/h (0 Bft) SO 135 4,0 C 0,0 km/h (0 Bft)
09.09.2015 08:05 6,2 C 6,9 C 87 % 1019,8 hPa 0,0 mm 0,0 km/h (0 Bft) SW 225 4,2 C 0,0 km/h (0 Bft)
09.09.2015 08:10 6,6 C 7,4 C 87 % 1019,8 hPa 0,0 mm 1,6 km/h (1 Bft) W-SW 247 4,6 C 3,9 km/h (1 Bft)
09.09.2015 08:15 6,9 C 7,6 C 87 % 1019,7 hPa 0,0 mm 2,1 km/h (1 Bft) W 270 4,9 C 0,0 km/h (0 Bft)
09.09.2015 08:20 7,3 C 8,6 C 87 % 1019,7 hPa 0,0 mm 1,0 km/h (0 Bft) SW 225 5,3 C 0,0 km/h (0 Bft)
09.09.2015 08:25 7,3 C 8,9 C 87 % 1019,7 hPa 0,0 mm 0,5 km/h (0 Bft) W-SW 247 5,3 C 3,9 km/h (1 Bft)
09.09.2015 08:30 7,2 C 8,4 C 87 % 1019,7 hPa 0,0 mm 3,1 km/h (1 Bft) SW 225 5,2 C 8,0 km/h (2 Bft)
09.09.2015 08:35 7,3 C 8,3 C 87 % 1019,8 hPa 0,0 mm 3,9 km/h (1 Bft) SW 225 5,3 C 4,7 km/h (1 Bft)
09.09.2015 08:40 7,6 C 10,0 C 87 % 1019,8 hPa 0,0 mm 1,6 km/h (1 Bft) S 180 5,6 C 0,0 km/h (0 Bft)
09.09.2015 08:45 7,8 C 12,4 C 87 % 1019,8 hPa 0,0 mm 0,3 km/h (0 Bft) S 180 5,8 C 0,0 km/h (0 Bft)
09.09.2015 08:50 8,9 C 15,2 C 87 % 1019,8 hPa 0,0 mm 0,0 km/h (0 Bft) S 180 6,9 C 0,0 km/h (0 Bft)
09.09.2015 08:55 9,6 C 16,9 C 86 % 1019,9 hPa 0,0 mm 0,0 km/h (0 Bft) SW 225 7,4 C 0,0 km/h (0 Bft)
09.09.2015 09:00 9,9 C 18,5 C 86 % 1019,9 hPa 0,0 mm 0,0 km/h (0 Bft) S 180 7,7 C 0,0 km/h (0 Bft)
09.09.2015 09:05 10,1 C 18,9 C 85 % 1019,9 hPa 0,0 mm 0,0 km/h (0 Bft) S 180 7,7 C 0,0 km/h (0 Bft)
09.09.2015 09:10 10,2 C 17,5 C 84 % 1019,9 hPa 0,0 mm 0,0 km/h (0 Bft) O-SO 112 7,6 C 0,0 km/h (0 Bft)
09.09.2015 09:15 10,2 C 16,4 C 84 % 1020,2 hPa 0,0 mm 0,0 km/h (0 Bft) O 90 7,6 C 0,0 km/h (0 Bft)
09.09.2015 09:20 10,3 C 15,2 C 84 % 1020,2 hPa 0,0 mm 0,3 km/h (0 Bft) N-NW 337 7,7 C 0,0 km/h (0 Bft)
09.09.2015 09:25 10,5 C 14,7 C 84 % 1020,2 hPa 0,0 mm 0,3 km/h (0 Bft) O-NO 67 7,9 C 0,0 km/h (0 Bft)
09.09.2015 09:30 10,5 C 13,9 C 83 % 1020,2 hPa 0,0 mm 1,3 km/h (1 Bft) NO 45 7,7 C 3,6 km/h (1 Bft)
09.09.2015 09:35 10,5 C 13,7 C 83 % 1020,4 hPa 0,0 mm 1,8 km/h (1 Bft) O-NO 67 7,7 C 0,0 km/h (0 Bft)
09.09.2015 09:40 11,3 C 15,0 C 82 % 1020,4 hPa 0,0 mm 1,6 km/h (1 Bft) N-NO 22 8,3 C 2,8 km/h (1 Bft)
09.09.2015 09:45 11,3 C 15,5 C 82 % 1020,4 hPa 0,0 mm 1,8 km/h (1 Bft) O-NO 67 8,3 C 3,1 km/h (1 Bft)
09.09.2015 09:50 11,1 C 15,0 C 81 % 1020,4 hPa 0,0 mm 1,8 km/h (1 Bft) N-NO 22 8,0 C 5,2 km/h (1 Bft)
09.09.2015 09:55 11,3 C 14,8 C 81 % 1020,6 hPa 0,0 mm 1,3 km/h (1 Bft) NO 45 8,2 C 2,6 km/h (1 Bft)
09.09.2015 10:00 11,4 C 14,8 C 80 % 1020,6 hPa 0,0 mm 2,1 km/h (1 Bft) N-NO 22 8,1 C 2,8 km/h (1 Bft)
09.09.2015 10:05 11,6 C 15,0 C 80 % 1020,6 hPa 0,0 mm 1,8 km/h (1 Bft) O-NO 67 8,3 C 7,5 km/h (2 Bft)
09.09.2015 10:10 12,0 C 15,6 C 78 % 1020,6 hPa 0,0 mm 3,6 km/h (1 Bft) O-NO 67 8,3 C 17,9 km/h (3 Bft)
09.09.2015 10:15 12,6 C 17,3 C 77 % 1020,8 hPa 0,0 mm 5,4 km/h (1 Bft) NO 45 8,7 C 5,7 km/h (1 Bft)
09.09.2015 10:20 13,1 C 18,8 C 75 % 1020,8 hPa 0,0 mm 6,2 km/h (2 Bft) NO 45 8,8 C 9,3 km/h (2 Bft)
09.09.2015 10:25 13,0 C 18,7 C 73 % 1020,8 hPa 0,0 mm 7,0 km/h (2 Bft) O-NO 67 8,3 C 14,0 km/h (3 Bft)
09.09.2015 10:30 13,1 C 18,4 C 72 % 1020,8 hPa 0,0 mm 6,7 km/h (2 Bft) O 90 8,2 C 6,7 km/h (2 Bft)
09.09.2015 10:35 13,4 C 18,8 C 72 % 1020,9 hPa 0,0 mm 4,9 km/h (1 Bft) O-SO 112 8,5 C 0,0 km/h (0 Bft)
09.09.2015 10:40 13,9 C 19,7 C 71 % 1020,9 hPa 0,0 mm 3,4 km/h (1 Bft) O-SO 112 8,7 C 8,8 km/h (2 Bft)
09.09.2015 10:45 13,9 C 20,0 C 70 % 1020,9 hPa 0,0 mm 3,1 km/h (1 Bft) N-NO 22 8,5 C 2,6 km/h (1 Bft)
09.09.2015 10:50 14,1 C 20,0 C 69 % 1020,9 hPa 0,0 mm 4,4 km/h (1 Bft) NO 45 8,5 C 7,3 km/h (2 Bft)
09.09.2015 10:55 14,1 C 20,1 C 69 % 1021,2 hPa 0,0 mm 4,4 km/h (1 Bft) O-NO 67 8,5 C 6,5 km/h (2 Bft)
09.09.2015 11:00 14,1 C 19,7 C 67 % 1021,2 hPa 0,0 mm 6,7 km/h (2 Bft) O 90 8,1 C 16,6 km/h (3 Bft)
09.09.2015 11:05 14,1 C 19,2 C 66 % 1021,2 hPa 0,0 mm 7,8 km/h (2 Bft) O-NO 67 7,8 C 9,3 km/h (2 Bft)
09.09.2015 11:10 14,2 C 19,1 C 65 % 1021,2 hPa 0,0 mm 9,6 km/h (2 Bft) NO 45 7,7 C 13,5 km/h (3 Bft)
09.09.2015 11:15 14,2 C 18,9 C 64 % 1021,3 hPa 0,0 mm 10,6 km/h (2 Bft) O-SO 112 7,5 C 13,2 km/h (3 Bft)
09.09.2015 11:20 14,3 C 18,6 C 63 % 1021,3 hPa 0,0 mm 11,4 km/h (2 Bft) O-NO 67 7,4 C 18,6 km/h (3 Bft)
09.09.2015 11:25 14,1 C 18,5 C 62 % 1021,3 hPa 0,0 mm 11,4 km/h (2 Bft) NO 45 6,9 C 16,3 km/h (3 Bft)
09.09.2015 11:30 13,7 C 17,3 C 63 % 1021,3 hPa 0,0 mm 10,9 km/h (2 Bft) NO 45 6,8 C 22,5 km/h (4 Bft)
09.09.2015 11:35 13,3 C 15,8 C 63 % 1021,4 hPa 0,0 mm 9,6 km/h (2 Bft) O-NO 67 6,4 C 7,3 km/h (2 Bft)
09.09.2015 11:40 13,9 C 16,6 C 65 % 1021,4 hPa 0,0 mm 7,0 km/h (2 Bft) N-NO 22 7,4 C 10,4 km/h (2 Bft)
09.09.2015 11:45 14,3 C 17,8 C 64 % 1021,4 hPa 0,0 mm 7,5 km/h (2 Bft) NO 45 7,6 C 21,0 km/h (4 Bft)
09.09.2015 11:50 14,4 C 18,6 C 63 % 1021,4 hPa 0,0 mm 10,1 km/h (2 Bft) NO 45 7,4 C 14,0 km/h (3 Bft)
09.09.2015 11:55 14,8 C 19,2 C 61 % 1021,4 hPa 0,0 mm 9,6 km/h (2 Bft) O-NO 67 7,4 C 9,3 km/h (2 Bft)
09.09.2015 12:00 15,0 C 20,2 C 60 % 1021,4 hPa 0,0 mm 8,0 km/h (2 Bft) NO 45 7,3 C 7,8 km/h (2 Bft)
09.09.2015 12:05 15,1 C 20,6 C 59 % 1021,4 hPa 0,0 mm 8,3 km/h (2 Bft) NO 45 7,1 C 15,0 km/h (3 Bft)
09.09.2015 12:10 15,1 C 20,2 C 58 % 1021,4 hPa 0,0 mm 10,4 km/h (2 Bft) NO 45 6,9 C 12,2 km/h (2 Bft)
09.09.2015 12:15 15,2 C 20,2 C 58 % 1021,3 hPa 0,0 mm 10,4 km/h (2 Bft) N 360 7,0 C 3,4 km/h (1 Bft)
09.09.2015 12:20 15,4 C 20,1 C 57 % 1021,3 hPa 0,0 mm 8,8 km/h (2 Bft) O-NO 67 6,9 C 5,4 km/h (1 Bft)
09.09.2015 12:25 15,5 C 20,4 C 57 % 1021,3 hPa 0,0 mm 10,1 km/h (2 Bft) NO 45 7,0 C 15,3 km/h (3 Bft)
09.09.2015 12:30 15,5 C 20,2 C 56 % 1021,3 hPa 0,0 mm 10,6 km/h (2 Bft) N-NO 22 6,8 C 7,5 km/h (2 Bft)
09.09.2015 12:35 15,6 C 20,7 C 56 % 1021,4 hPa 0,0 mm 9,8 km/h (2 Bft) N-NO 22 6,9 C 12,4 km/h (3 Bft)
09.09.2015 12:40 15,5 C 19,9 C 57 % 1021,4 hPa 0,0 mm 9,3 km/h (2 Bft) O-NO 67 7,0 C 11,9 km/h (2 Bft)
09.09.2015 12:45 15,8 C 20,5 C 58 % 1021,4 hPa 0,0 mm 10,1 km/h (2 Bft) N 360 7,6 C 15,5 km/h (3 Bft)
09.09.2015 12:50 15,4 C 19,5 C 57 % 1021,4 hPa 0,0 mm 10,1 km/h (2 Bft) NO 45 6,9 C 23,0 km/h (4 Bft)
09.09.2015 12:55 14,7 C 17,4 C 58 % 1021,3 hPa 0,0 mm 10,4 km/h (2 Bft) N-NO 22 6,5 C 12,7 km/h (3 Bft)
09.09.2015 13:00 15,0 C 16,8 C 58 % 1021,3 hPa 0,0 mm 9,3 km/h (2 Bft) O 90 6,8 C 10,6 km/h (2 Bft)
09.09.2015 13:05 15,4 C 17,4 C 58 % 1021,3 hPa 0,0 mm 10,1 km/h (2 Bft) NO 45 7,2 C 10,6 km/h (2 Bft)
09.09.2015 13:10 15,1 C 17,0 C 58 % 1021,3 hPa 0,0 mm 9,3 km/h (2 Bft) O-NO 67 6,9 C 3,4 km/h (1 Bft)
09.09.2015 13:15 15,2 C 17,3 C 58 % 1021,3 hPa 0,0 mm 7,3 km/h (2 Bft) NO 45 7,0 C 10,4 km/h (2 Bft)
09.09.2015 13:20 15,6 C 18,7 C 58 % 1021,3 hPa 0,0 mm 6,0 km/h (2 Bft) NO 45 7,4 C 9,6 km/h (2 Bft)
09.09.2015 13:25 15,7 C 19,5 C 58 % 1021,3 hPa 0,0 mm 7,5 km/h (2 Bft) O-NO 67 7,5 C 13,5 km/h (3 Bft)
09.09.2015 13:30 15,6 C 19,7 C 58 % 1021,3 hPa 0,0 mm 7,5 km/h (2 Bft) O-NO 67 7,4 C 6,0 km/h (2 Bft)
09.09.2015 13:35 16,1 C 21,1 C 56 % 1021,1 hPa 0,0 mm 7,3 km/h (2 Bft) O-NO 67 7,3 C 14,5 km/h (3 Bft)
09.09.2015 13:40 15,5 C 20,0 C 56 % 1021,1 hPa 0,0 mm 7,5 km/h (2 Bft) NO 45 6,8 C 7,8 km/h (2 Bft)
09.09.2015 13:45 15,2 C 18,8 C 57 % 1021,1 hPa 0,0 mm 8,0 km/h (2 Bft) O-NO 67 6,7 C 6,2 km/h (2 Bft)
09.09.2015 13:50 14,9 C 17,3 C 57 % 1021,1 hPa 0,0 mm 8,5 km/h (2 Bft) NO 45 6,5 C 5,4 km/h (1 Bft)
09.09.2015 13:55 15,3 C 17,5 C 56 % 1021,2 hPa 0,0 mm 8,3 km/h (2 Bft) NO 45 6,6 C 11,1 km/h (2 Bft)
09.09.2015 14:00 15,2 C 18,3 C 56 % 1021,2 hPa 0,0 mm 7,8 km/h (2 Bft) O-NO 67 6,5 C 16,8 km/h (3 Bft)
09.09.2015 14:05 14,9 C 17,4 C 56 % 1021,2 hPa 0,0 mm 8,0 km/h (2 Bft) O-SO 112 6,2 C 0,0 km/h (0 Bft)
09.09.2015 14:10 15,1 C 17,3 C 56 % 1021,2 hPa 0,0 mm 7,0 km/h (2 Bft) NO 45 6,4 C 4,4 km/h (1 Bft)
09.09.2015 14:15 15,5 C 19,1 C 57 % 1020,8 hPa 0,0 mm 6,0 km/h (2 Bft) O-NO 67 7,0 C 4,1 km/h (1 Bft)
09.09.2015 14:20 15,1 C 18,3 C 56 % 1020,8 hPa 0,0 mm 6,0 km/h (2 Bft) NO 45 6,4 C 10,9 km/h (2 Bft)
09.09.2015 14:25 15,1 C 17,4 C 56 % 1020,8 hPa 0,0 mm 7,5 km/h (2 Bft) O 90 6,4 C 3,9 km/h (1 Bft)
09.09.2015 14:30 15,8 C 19,5 C 56 % 1020,8 hPa 0,0 mm 6,2 km/h (2 Bft) S-SO 157 7,0 C 6,7 km/h (2 Bft)
09.09.2015 14:35 15,8 C 19,8 C 56 % 1020,9 hPa 0,0 mm 4,7 km/h (1 Bft) N-NO 22 7,0 C 11,1 km/h (2 Bft)
09.09.2015 14:40 15,5 C 18,8 C 56 % 1020,9 hPa 0,0 mm 6,5 km/h (2 Bft) O-SO 112 6,8 C 7,3 km/h (2 Bft)
09.09.2015 14:45 15,3 C 18,2 C 55 % 1020,9 hPa 0,0 mm 7,3 km/h (2 Bft) N-NO 22 6,3 C 7,3 km/h (2 Bft)
09.09.2015 14:50 15,6 C 18,8 C 55 % 1020,9 hPa 0,0 mm 7,5 km/h (2 Bft) O-NO 67 6,6 C 8,5 km/h (2 Bft)
09.09.2015 14:55 15,6 C 18,8 C 55 % 1020,8 hPa 0,0 mm 8,5 km/h (2 Bft) NO 45 6,6 C 15,8 km/h (3 Bft)
09.09.2015 15:00 15,1 C 17,6 C 55 % 1020,8 hPa 0,0 mm 7,5 km/h (2 Bft) NW 315 6,1 C 4,7 km/h (1 Bft)
09.09.2015 15:05 15,0 C 17,1 C 56 % 1020,8 hPa 0,0 mm 6,5 km/h (2 Bft) O-NO 67 6,3 C 6,5 km/h (2 Bft)
09.09.2015 15:10 14,9 C 16,6 C 55 % 1020,8 hPa 0,0 mm 7,3 km/h (2 Bft) NO 45 5,9 C 8,3 km/h (2 Bft)
09.09.2015 15:15 15,5 C 17,9 C 56 % 1020,7 hPa 0,0 mm 8,3 km/h (2 Bft) W-SW 247 6,8 C 6,7 km/h (2 Bft)
09.09.2015 15:20 15,6 C 18,4 C 56 % 1020,7 hPa 0,0 mm 8,5 km/h (2 Bft) W 270 6,9 C 13,7 km/h (3 Bft)
09.09.2015 15:25 15,4 C 17,8 C 55 % 1020,7 hPa 0,0 mm 8,8 km/h (2 Bft) NO 45 6,4 C 8,8 km/h (2 Bft)
09.09.2015 15:30 15,1 C 16,9 C 55 % 1020,7 hPa 0,0 mm 9,1 km/h (2 Bft) N-NO 22 6,1 C 9,8 km/h (2 Bft)
09.09.2015 15:35 15,1 C 16,9 C 55 % 1020,5 hPa 0,0 mm 8,5 km/h (2 Bft) NO 45 6,1 C 8,5 km/h (2 Bft)
09.09.2015 15:40 15,7 C 18,5 C 55 % 1020,5 hPa 0,0 mm 8,3 km/h (2 Bft) NW 315 6,7 C 15,5 km/h (3 Bft)
09.09.2015 15:45 15,9 C 19,3 C 55 % 1020,5 hPa 0,0 mm 8,3 km/h (2 Bft) N-NO 22 6,9 C 6,0 km/h (2 Bft)
09.09.2015 15:50 16,1 C 20,3 C 52 % 1020,5 hPa 0,0 mm 9,8 km/h (2 Bft) N-NO 22 6,2 C 14,8 km/h (3 Bft)
09.09.2015 15:51 16,1 C 20,3 C 52 % 1020,5 hPa 0,0 mm 9,8 km/h (2 Bft) N-NO 22 6,2 C 14,8 km/h (3 Bft)
09.09.2015 15:55 16,1 C 20,3 C 52 % 1020,5 hPa 0,0 mm 9,8 km/h (2 Bft) N-NO 22 6,2 C 14,8 km/h (3 Bft)
09.09.2015 16:00 16,0 C 20,6 C 52 % 1020,5 hPa 0,0 mm 7,3 km/h (2 Bft) N 360 6,2 C 11,9 km/h (2 Bft)
09.09.2015 16:05 16,2 C 20,9 C 52 % 1020,5 hPa 0,0 mm 7,3 km/h (2 Bft) O 90 6,3 C 9,6 km/h (2 Bft)
09.09.2015 16:10 16,0 C 20,9 C 51 % 1020,5 hPa 0,0 mm 7,5 km/h (2 Bft) SO 135 5,9 C 9,6 km/h (2 Bft)
09.09.2015 16:15 15,3 C 19,2 C 53 % 1020,4 hPa 0,0 mm 7,3 km/h (2 Bft) NO 45 5,8 C 12,9 km/h (3 Bft)
09.09.2015 16:20 14,9 C 17,0 C 54 % 1020,4 hPa 0,0 mm 7,0 km/h (2 Bft) N-NW 337 5,7 C 4,7 km/h (1 Bft)
09.09.2015 16:25 14,8 C 16,4 C 55 % 1020,4 hPa 0,0 mm 7,0 km/h (2 Bft) NO 45 5,8 C 10,1 km/h (2 Bft)
09.09.2015 16:30 14,6 C 15,9 C 54 % 1020,4 hPa 0,0 mm 8,8 km/h (2 Bft) O-NO 67 5,4 C 14,8 km/h (3 Bft)
09.09.2015 16:35 14,4 C 15,5 C 54 % 1020,3 hPa 0,0 mm 10,4 km/h (2 Bft) O-NO 67 5,2 C 6,5 km/h (2 Bft)
09.09.2015 16:40 14,4 C 15,4 C 54 % 1020,3 hPa 0,0 mm 8,8 km/h (2 Bft) O-NO 67 5,2 C 5,2 km/h (1 Bft)
09.09.2015 16:45 14,4 C 15,4 C 55 % 1020,3 hPa 0,0 mm 6,7 km/h (2 Bft) NO 45 5,5 C 4,4 km/h (1 Bft)
09.09.2015 16:50 14,3 C 15,4 C 56 % 1020,3 hPa 0,0 mm 3,9 km/h (1 Bft) O-NO 67 5,6 C 8,5 km/h (2 Bft)
09.09.2015 16:55 14,3 C 15,4 C 55 % 1020,1 hPa 0,0 mm 4,4 km/h (1 Bft) SO 135 5,4 C 8,3 km/h (2 Bft)
09.09.2015 17:00 14,3 C 15,4 C 55 % 1020,1 hPa 0,0 mm 5,7 km/h (1 Bft) N-NO 22 5,4 C 11,4 km/h (2 Bft)
09.09.2015 17:05 14,4 C 15,4 C 55 % 1020,1 hPa 0,0 mm 4,9 km/h (1 Bft) NO 45 5,5 C 3,4 km/h (1 Bft)
09.09.2015 17:10 14,7 C 15,9 C 55 % 1020,1 hPa 0,0 mm 4,9 km/h (1 Bft) O-NO 67 5,8 C 9,8 km/h (2 Bft)
09.09.2015 17:15 14,7 C 16,0 C 54 % 1019,9 hPa 0,0 mm 5,2 km/h (1 Bft) O-SO 112 5,5 C 4,7 km/h (1 Bft)
09.09.2015 17:20 14,5 C 15,7 C 55 % 1019,9 hPa 0,0 mm 6,0 km/h (2 Bft) NO 45 5,6 C 6,5 km/h (2 Bft)
09.09.2015 17:25 14,5 C 15,6 C 55 % 1019,9 hPa 0,0 mm 3,6 km/h (1 Bft) O-SO 112 5,6 C 0,0 km/h (0 Bft)
09.09.2015 17:30 14,3 C 15,5 C 55 % 1019,9 hPa 0,0 mm 2,6 km/h (1 Bft) O-SO 112 5,4 C 3,6 km/h (1 Bft)
09.09.2015 17:35 14,2 C 15,3 C 56 % 1020,0 hPa 0,0 mm 2,6 km/h (1 Bft) O-NO 67 5,6 C 0,0 km/h (0 Bft)
09.09.2015 17:40 14,1 C 15,2 C 56 % 1020,0 hPa 0,0 mm 1,8 km/h (1 Bft) O-SO 112 5,5 C 5,4 km/h (1 Bft)
09.09.2015 17:45 14,1 C 15,2 C 56 % 1020,0 hPa 0,0 mm 1,3 km/h (1 Bft) O-NO 67 5,5 C 5,2 km/h (1 Bft)
09.09.2015 17:50 14,1 C 15,0 C 56 % 1020,0 hPa 0,0 mm 2,8 km/h (1 Bft) O 90 5,5 C 6,5 km/h (2 Bft)
09.09.2015 17:55 14,1 C 14,9 C 56 % 1019,9 hPa 0,0 mm 3,1 km/h (1 Bft) O-NO 67 5,5 C 4,1 km/h (1 Bft)
09.09.2015 18:00 14,0 C 14,6 C 56 % 1019,9 hPa 0,0 mm 4,4 km/h (1 Bft) N-NO 22 5,4 C 9,8 km/h (2 Bft)
09.09.2015 18:05 13,8 C 14,4 C 56 % 1019,9 hPa 0,0 mm 4,4 km/h (1 Bft) N-NO 22 5,2 C 4,1 km/h (1 Bft)
09.09.2015 18:10 13,8 C 14,1 C 56 % 1019,9 hPa 0,0 mm 5,2 km/h (1 Bft) N-NO 22 5,2 C 11,1 km/h (2 Bft)
09.09.2015 18:15 13,7 C 14,0 C 56 % 1019,9 hPa 0,0 mm 6,0 km/h (2 Bft) O-NO 67 5,1 C 0,0 km/h (0 Bft)
09.09.2015 18:20 13,4 C 13,8 C 56 % 1019,9 hPa 0,0 mm 5,4 km/h (1 Bft) NO 45 4,8 C 0,0 km/h (0 Bft)
09.09.2015 18:25 13,2 C 13,7 C 57 % 1019,9 hPa 0,0 mm 4,4 km/h (1 Bft) SO 135 4,9 C 5,7 km/h (1 Bft)
09.09.2015 18:30 13,0 C 13,4 C 57 % 1019,9 hPa 0,0 mm 2,1 km/h (1 Bft) O-NO 67 4,7 C 6,2 km/h (2 Bft)
09.09.2015 18:35 12,9 C 13,3 C 57 % 1019,8 hPa 0,0 mm 1,8 km/h (1 Bft) S-SO 157 4,6 C 7,3 km/h (2 Bft)
09.09.2015 18:40 12,9 C 13,1 C 57 % 1019,8 hPa 0,0 mm 2,3 km/h (1 Bft) O-SO 112 4,6 C 0,0 km/h (0 Bft)
09.09.2015 18:45 12,7 C 12,9 C 57 % 1019,8 hPa 0,0 mm 1,6 km/h (1 Bft) SO 135 4,4 C 0,0 km/h (0 Bft)
09.09.2015 18:50 12,4 C 12,6 C 59 % 1019,8 hPa 0,0 mm 0,0 km/h (0 Bft) O-SO 112 4,6 C 0,0 km/h (0 Bft)
09.09.2015 18:55 12,4 C 12,4 C 59 % 1019,7 hPa 0,0 mm 0,0 km/h (0 Bft) O-NO 67 4,6 C 0,0 km/h (0 Bft)
09.09.2015 19:00 12,5 C 12,4 C 59 % 1019,7 hPa 0,0 mm 0,0 km/h (0 Bft) S 180 4,7 C 3,4 km/h (1 Bft)
09.09.2015 19:05 12,3 C 12,2 C 59 % 1019,7 hPa 0,0 mm 0,3 km/h (0 Bft) S 180 4,5 C 2,6 km/h (1 Bft)
09.09.2015 19:10 12,2 C 12,1 C 59 % 1019,7 hPa 0,0 mm 0,5 km/h (0 Bft) SO 135 4,4 C 3,1 km/h (1 Bft)
09.09.2015 19:15 12,2 C 12,0 C 59 % 1019,8 hPa 0,0 mm 0,5 km/h (0 Bft) O-SO 112 4,4 C 3,9 km/h (1 Bft)
09.09.2015 19:20 12,0 C 11,8 C 59 % 1019,8 hPa 0,0 mm 1,3 km/h (1 Bft) O 90 4,2 C 3,4 km/h (1 Bft)
09.09.2015 19:25 11,8 C 11,6 C 60 % 1019,8 hPa 0,0 mm 1,6 km/h (1 Bft) S-SO 157 4,3 C 0,0 km/h (0 Bft)
09.09.2015 19:30 11,5 C 11,3 C 61 % 1019,8 hPa 0,0 mm 1,6 km/h (1 Bft) SO 135 4,2 C 0,0 km/h (0 Bft)
09.09.2015 19:35 11,2 C 11,1 C 62 % 1019,8 hPa 0,0 mm 1,8 km/h (1 Bft) S-SO 157 4,2 C 3,1 km/h (1 Bft)
09.09.2015 19:40 10,8 C 10,7 C 63 % 1019,8 hPa 0,0 mm 1,8 km/h (1 Bft) S-SO 157 4,0 C 2,8 km/h (1 Bft)
09.09.2015 19:45 10,8 C 10,6 C 64 % 1019,8 hPa 0,0 mm 2,1 km/h (1 Bft) S-SO 157 4,3 C 0,0 km/h (0 Bft)
09.09.2015 19:50 10,4 C 10,3 C 65 % 1019,8 hPa 0,0 mm 2,6 km/h (1 Bft) S-SO 157 4,1 C 4,4 km/h (1 Bft)
09.09.2015 19:55 10,2 C 10,1 C 66 % 1019,9 hPa 0,0 mm 2,6 km/h (1 Bft) SO 135 4,1 C 4,1 km/h (1 Bft)
09.09.2015 20:00 10,0 C 9,8 C 67 % 1019,9 hPa 0,0 mm 1,3 km/h (1 Bft) SO 135 4,2 C 0,0 km/h (0 Bft)
09.09.2015 20:05 9,9 C 9,7 C 68 % 1019,9 hPa 0,0 mm 0,5 km/h (0 Bft) S-SO 157 4,3 C 0,0 km/h (0 Bft)
09.09.2015 20:10 9,6 C 9,3 C 69 % 1019,9 hPa 0,0 mm 0,0 km/h (0 Bft) S 180 4,2 C 0,0 km/h (0 Bft)
09.09.2015 20:15 9,4 C 9,2 C 69 % 1019,9 hPa 0,0 mm 0,0 km/h (0 Bft) S 180 4,0 C 0,0 km/h (0 Bft)
09.09.2015 20:20 9,1 C 9,0 C 70 % 1019,9 hPa 0,0 mm 0,3 km/h (0 Bft) S 180 3,9 C 3,1 km/h (1 Bft)
09.09.2015 20:25 8,9 C 8,9 C 71 % 1019,9 hPa 0,0 mm 0,3 km/h (0 Bft) S-SO 157 3,9 C 0,0 km/h (0 Bft)
09.09.2015 20:30 8,6 C 8,6 C 71 % 1019,9 hPa 0,0 mm 0,3 km/h (0 Bft) SO 135 3,6 C 0,0 km/h (0 Bft)
09.09.2015 20:35 8,5 C 8,5 C 72 % 1019,8 hPa 0,0 mm 0,3 km/h (0 Bft) S 180 3,7 C 0,0 km/h (0 Bft)
09.09.2015 20:40 8,7 C 8,4 C 72 % 1019,8 hPa 0,0 mm 0,5 km/h (0 Bft) S-SW 202 3,9 C 2,8 km/h (1 Bft)
09.09.2015 20:45 8,8 C 8,5 C 73 % 1019,8 hPa 0,0 mm 0,5 km/h (0 Bft) S-SO 157 4,2 C 0,0 km/h (0 Bft)
09.09.2015 20:50 8,2 C 8,0 C 73 % 1019,8 hPa 0,0 mm 0,3 km/h (0 Bft) S-SW 202 3,7 C 0,0 km/h (0 Bft)
09.09.2015 20:55 7,6 C 7,5 C 72 % 1020,1 hPa 0,0 mm 0,0 km/h (0 Bft) S-SW 202 2,9 C 0,0 km/h (0 Bft)
09.09.2015 21:00 7,6 C 7,3 C 74 % 1020,1 hPa 0,0 mm 0,0 km/h (0 Bft) SO 135 3,3 C 0,0 km/h (0 Bft)
09.09.2015 21:05 7,6 C 7,4 C 74 % 1020,1 hPa 0,0 mm 0,0 km/h (0 Bft) S-SO 157 3,3 C 0,0 km/h (0 Bft)
09.09.2015 21:10 7,6 C 7,7 C 76 % 1020,1 hPa 0,0 mm 0,0 km/h (0 Bft) SO 135 3,6 C 0,0 km/h (0 Bft)
09.09.2015 21:15 7,4 C 7,2 C 76 % 1019,9 hPa 0,0 mm 0,0 km/h (0 Bft) SO 135 3,5 C 0,0 km/h (0 Bft)
09.09.2015 21:20 6,9 C 6,7 C 76 % 1019,9 hPa 0,0 mm 0,0 km/h (0 Bft) SO 135 3,0 C 0,0 km/h (0 Bft)
09.09.2015 21:25 6,7 C 6,5 C 76 % 1019,9 hPa 0,0 mm 0,0 km/h (0 Bft) S 180 2,8 C 0,0 km/h (0 Bft)
09.09.2015 21:30 7,0 C 6,6 C 78 % 1019,9 hPa 0,0 mm 0,0 km/h (0 Bft) S 180 3,4 C 0,0 km/h (0 Bft)
09.09.2015 21:35 7,0 C 6,6 C 78 % 1019,9 hPa 0,0 mm 0,0 km/h (0 Bft) O-SO 112 3,4 C 0,0 km/h (0 Bft)
09.09.2015 21:40 6,9 C 6,5 C 79 % 1019,9 hPa 0,0 mm 0,3 km/h (0 Bft) SO 135 3,5 C 0,0 km/h (0 Bft)
09.09.2015 21:45 6,8 C 6,4 C 79 % 1019,9 hPa 0,0 mm 0,0 km/h (0 Bft) SO 135 3,4 C 0,0 km/h (0 Bft)
09.09.2015 21:50 6,8 C 6,5 C 77 % 1019,9 hPa 0,0 mm 0,3 km/h (0 Bft) S 180 3,1 C 2,6 km/h (1 Bft)
09.09.2015 21:52 6,6 C 6,3 C 79 % 1020,2 hPa 0,0 mm 0,3 km/h (0 Bft) S 180 3,2 C 0,0 km/h (0 Bft)
09.09.2015 21:55 6,6 C 6,3 C 79 % 1020,2 hPa 0,0 mm 0,3 km/h (0 Bft) S 180 3,2 C 0,0 km/h (0 Bft)
09.09.2015 22:00 6,1 C 5,9 C 78 % 1020,2 hPa 0,0 mm 0,3 km/h (0 Bft) S 180 2,6 C 0,0 km/h (0 Bft)
09.09.2015 22:05 6,3 C 6,0 C 79 % 1020,2 hPa 0,0 mm 0,0 km/h (0 Bft) S-SO 157 2,9 C 0,0 km/h (0 Bft)
09.09.2015 22:10 6,7 C 6,5 C 78 % 1020,2 hPa 0,0 mm 0,0 km/h (0 Bft) S-SO 157 3,1 C 2,8 km/h (1 Bft)
09.09.2015 22:15 7,2 C 6,8 C 79 % 1019,9 hPa 0,0 mm 0,8 km/h (0 Bft) S-SO 157 3,8 C 0,0 km/h (0 Bft)
09.09.2015 22:20 7,1 C 6,9 C 78 % 1019,9 hPa 0,0 mm 1,0 km/h (0 Bft) S-SO 157 3,5 C 0,0 km/h (0 Bft)
09.09.2015 22:25 6,9 C 6,7 C 79 % 1019,9 hPa 0,0 mm 0,3 km/h (0 Bft) S-SO 157 3,5 C 2,6 km/h (1 Bft)
09.09.2015 22:30 6,3 C 6,1 C 80 % 1019,9 hPa 0,0 mm 0,3 km/h (0 Bft) S 180 3,1 C 0,0 km/h (0 Bft)
09.09.2015 22:35 6,4 C 6,2 C 81 % 1019,7 hPa 0,0 mm 0,3 km/h (0 Bft) SO 135 3,4 C 0,0 km/h (0 Bft)
09.09.2015 22:40 5,7 C 5,6 C 81 % 1019,7 hPa 0,0 mm 0,3 km/h (0 Bft) O-SO 112 2,7 C 0,0 km/h (0 Bft)
09.09.2015 22:45 5,6 C 5,4 C 81 % 1019,7 hPa 0,0 mm 0,0 km/h (0 Bft) SO 135 2,6 C 0,0 km/h (0 Bft)
09.09.2015 22:50 5,4 C 5,2 C 81 % 1019,7 hPa 0,0 mm 0,0 km/h (0 Bft) O 90 2,4 C 0,0 km/h (0 Bft)
09.09.2015 22:55 5,5 C 5,2 C 82 % 1019,6 hPa 0,0 mm 0,0 km/h (0 Bft) S 180 2,7 C 0,0 km/h (0 Bft)
09.09.2015 23:00 5,1 C 4,9 C 81 % 1019,6 hPa 0,0 mm 0,0 km/h (0 Bft) S 180 2,1 C 0,0 km/h (0 Bft)
09.09.2015 23:05 5,0 C 4,7 C 81 % 1019,6 hPa 0,0 mm 0,0 km/h (0 Bft) S 180 2,0 C 0,0 km/h (0 Bft)
09.09.2015 23:10 4,7 C 4,5 C 81 % 1019,6 hPa 0,0 mm 0,0 km/h (0 Bft) S 180 1,7 C 0,0 km/h (0 Bft)
09.09.2015 23:15 4,6 C 4,3 C 82 % 1019,6 hPa 0,0 mm 0,0 km/h (0 Bft) S 180 1,8 C 0,0 km/h (0 Bft)
09.09.2015 23:20 5,0 C 4,5 C 83 % 1019,6 hPa 0,0 mm 0,0 km/h (0 Bft) S-SO 157 2,4 C 0,0 km/h (0 Bft)
09.09.2015 23:25 5,4 C 5,1 C 81 % 1019,6 hPa 0,0 mm 0,5 km/h (0 Bft) SW 225 2,4 C 3,6 km/h (1 Bft)
09.09.2015 23:30 5,9 C 5,6 C 82 % 1019,6 hPa 0,0 mm 0,5 km/h (0 Bft) S 180 3,1 C 0,0 km/h (0 Bft)
09.09.2015 23:35 6,0 C 5,7 C 86 % 1019,7 hPa 0,0 mm 0,3 km/h (0 Bft) SO 135 3,8 C 0,0 km/h (0 Bft)
09.09.2015 23:40 5,0 C 4,9 C 85 % 1019,7 hPa 0,0 mm 0,0 km/h (0 Bft) SW 225 2,7 C 0,0 km/h (0 Bft)
09.09.2015 23:45 4,7 C 4,5 C 85 % 1019,7 hPa 0,0 mm 0,0 km/h (0 Bft) SW 225 2,4 C 0,0 km/h (0 Bft)
09.09.2015 23:50 4,5 C 4,3 C 85 % 1019,7 hPa 0,0 mm 0,0 km/h (0 Bft) SW 225 2,2 C 0,0 km/h (0 Bft)
09.09.2015 23:55 4,8 C 4,4 C 85 % 1019,5 hPa 0,0 mm 0,0 km/h (0 Bft) S 180 2,5 C 0,0 km/h (0 Bft)
_ Min-Zeit 07:05 07:05 16:10 06:50 - 23:55 - - 23:10 23:55
Minimum _ 4,2 C 4,0 C 51 % 1019,4 hPa - 0,0 km/h (0 Bft) - - 1,7 C 0,0 km/h (0 Bft)
_ Max-Zeit 16:05 13:35 07:15 12:50 23:55 11:25 - - 10:20 12:50
Maximum _ 16,2 C 21,1 C 90 % 1021,4 hPa 0,0 mm 11,4 km/h
NO (2 Bft)
- - 8,8 C 23,0 km/h
NO (4 Bft)
Durchschnitt _ 9,6 C 10,9 C 73 % 1020,3 hPa #0,0 mm 2,7 km/h (1 Bft) NO - 4,8 C 3,6 km/h (1 Bft)